• In Belgien
  • Länderverzeichnis
  • Für 7 Tage
  • Wassertemperatur
  • Satellitenkarten
  • Wetterkarte
  • Widgets
  • user-avatar
    Anmelden

    Stündliche Wetter De Haan

    Heute, 17 Februar, Samstag

    Zeit Temperatur Niederschläge Wind Luftdruck Luftfeuchtigkeit
    00:00 +1°C° 0 mm 4 m/S 768 mmHg 78%
    01:00 +2°C° 0 mm 3 m/S 767 mmHg 78%
    02:00 +2°C° 0 mm 3 m/S 767 mmHg 79%
    03:00 +2°C° 0 mm 3 m/S 766 mmHg 80%
    04:00 +2°C° 0 mm 3 m/S 766 mmHg 80%
    05:00 +2°C° 0 mm 3 m/S 766 mmHg 81%
    06:00 +1°C° 0 mm 3 m/S 766 mmHg 81%
    07:00 +2°C° 0 mm 3 m/S 766 mmHg 79%
    08:00 +2°C° 0 mm 3 m/S 766 mmHg 77%
    09:00 +3°C° 0 mm 3 m/S 766 mmHg 75%
    10:00 +4°C° 0 mm 3 m/S 766 mmHg 70%
    11:00 +5°C° 0 mm 3 m/S 766 mmHg 64%
    12:00 +7°C° 0 mm 2 m/S 766 mmHg 58%
    13:00 +8°C° 0 mm 2 m/S 766 mmHg 55%
    14:00 +8°C° 0 mm 2 m/S 766 mmHg 53%
    15:00 +9°C° 0 mm 1 m/S 766 mmHg 50%
    16:00 +8°C° 0 mm 1 m/S 766 mmHg 55%
    17:00 +7°C° 0 mm 1 m/S 767 mmHg 60%
    18:00 +5°C° 0 mm 1 m/S 767 mmHg 65%
    19:00 +5°C° 0 mm 1 m/S 767 mmHg 67%
    20:00 +4°C° 0 mm 1 m/S 767 mmHg 69%
    21:00 +3°C° 0 mm 2 m/S 768 mmHg 71%
    22:00 +3°C° 0 mm 2 m/S 768 mmHg 73%
    23:00 +2°C° 0 mm 2 m/S 768 mmHg 74%

    Morgen, 18 Februar, Sonntag

    Zeit Temperatur Niederschläge Wind Luftdruck Luftfeuchtigkeit
    00:00 +2°C° 0 mm 2 m/S 768 mmHg 76%
    01:00 +2°C° 0 mm 2 m/S 768 mmHg 77%
    02:00 +2°C° 0 mm 2 m/S 768 mmHg 79%
    03:00 0°C° 0 mm 3 m/S 768 mmHg 80%
    04:00 0°C° 0 mm 3 m/S 768 mmHg 81%
    05:00 0°C° 0 mm 3 m/S 768 mmHg 82%
    06:00 0°C° 0 mm 3 m/S 768 mmHg 83%
    07:00 +1°C° 0 mm 3 m/S 768 mmHg 80%
    08:00 +2°C° 0 mm 3 m/S 768 mmHg 77%
    09:00 +2°C° 0 mm 3 m/S 768 mmHg 74%
    10:00 +4°C° 0 mm 3 m/S 768 mmHg 68%
    11:00 +5°C° 0 mm 3 m/S 768 mmHg 62%
    12:00 +8°C° 0 mm 3 m/S 768 mmHg 57%
    13:00 +8°C° 0 mm 3 m/S 768 mmHg 55%
    14:00 +8°C° 0 mm 3 m/S 767 mmHg 54%
    15:00 +9°C° 0 mm 3 m/S 767 mmHg 52%
    16:00 +7°C° 0 mm 3 m/S 767 mmHg 57%
    17:00 +5°C° 0 mm 3 m/S 767 mmHg 62%
    18:00 +4°C° 0 mm 3 m/S 767 mmHg 67%
    19:00 +4°C° 0 mm 3 m/S 767 mmHg 69%
    20:00 +4°C° 0 mm 3 m/S 767 mmHg 71%
    21:00 +3°C° 0 mm 3 m/S 767 mmHg 73%
    22:00 +3°C° 0 mm 4 m/S 767 mmHg 75%
    23:00 +1°C° 0 mm 4 m/S 767 mmHg 77%

    übermorgen, 19 Februar, Montag

    Zeit Temperatur Niederschläge Wind Luftdruck Luftfeuchtigkeit
    00:00 +1°C° 0 mm 4 m/S 767 mmHg 80%
    01:00 +1°C° 0 mm 4 m/S 766 mmHg 79%
    02:00 +1°C° 0 mm 4 m/S 766 mmHg 79%
    03:00 0°C° 0 mm 4 m/S 766 mmHg 79%
    04:00 0°C° 0 mm 4 m/S 766 mmHg 79%
    05:00 0°C° 0 mm 4 m/S 765 mmHg 80%
    06:00 0°C° 0 mm 4 m/S 765 mmHg 81%
    07:00 0°C° 0 mm 4 m/S 765 mmHg 79%
    08:00 +1°C° 0 mm 4 m/S 765 mmHg 77%
    09:00 +2°C° 0 mm 5 m/S 765 mmHg 75%
    10:00 +3°C° 0,1 mm 5 m/S 765 mmHg 73%
    11:00 +5°C° 0,1 mm 5 m/S 765 mmHg 72%
    12:00 +6°C° 0,1 mm 5 m/S 764 mmHg 70%
    13:00 +6°C° 0,2 mm 4 m/S 764 mmHg 72%
    14:00 +6°C° 0,2 mm 4 m/S 764 mmHg 74%
    15:00 +6°C° 0,2 mm 4 m/S 763 mmHg 76%
    16:00 +6°C° 0,4 mm 4 m/S 763 mmHg 79%
    17:00 +6°C° 0,4 mm 5 m/S 763 mmHg 82%
    18:00 +5°C° 0,4 mm 5 m/S 762 mmHg 84%
    19:00 +5°C° 0,7 mm 5 m/S 762 mmHg 87%
    20:00 +5°C° 0,7 mm 5 m/S 762 mmHg 89%
    21:00 +5°C° 0,7 mm 5 m/S 762 mmHg 91%
    22:00 +6°C° 0,9 mm 5 m/S 761 mmHg 92%
    23:00 +6°C° 0,9 mm 5 m/S 761 mmHg 94%

    20 Februar, Dienstag

    Zeit Temperatur Niederschläge Wind Luftdruck Luftfeuchtigkeit
    00:00 +6°C° 0,9 mm 5 m/S 761 mmHg 96%
    01:00 +5°C° 0,7 mm 6 m/S 760 mmHg 96%
    02:00 +7°C° 0,7 mm 6 m/S 760 mmHg 96%
    03:00 +6°C° 0,7 mm 7 m/S 760 mmHg 96%
    04:00 +6°C° 0,3 mm 7 m/S 760 mmHg 95%
    05:00 +5°C° 0,3 mm 7 m/S 760 mmHg 94%
    06:00 +5°C° 0,3 mm 7 m/S 760 mmHg 93%
    07:00 +5°C° 0,2 mm 7 m/S 760 mmHg 92%
    08:00 +4°C° 0,2 mm 6 m/S 761 mmHg 90%
    09:00 +4°C° 0,2 mm 6 m/S 761 mmHg 88%
    10:00 +4°C° 0,1 mm 6 m/S 761 mmHg 86%
    11:00 +5°C° 0,1 mm 7 m/S 762 mmHg 84%
    12:00 +5°C° 0,1 mm 7 m/S 762 mmHg 81%
    13:00 +4°C° 0 mm 8 m/S 763 mmHg 80%
    14:00 +4°C° 0 mm 8 m/S 763 mmHg 79%
    15:00 +4°C° 0 mm 8 m/S 763 mmHg 77%
    16:00 +2°C° 0 mm 8 m/S 764 mmHg 77%
    17:00 +2°C° 0 mm 8 m/S 764 mmHg 77%
    18:00 +2°C° 0 mm 8 m/S 765 mmHg 77%
    19:00 +2°C° 0 mm 7 m/S 765 mmHg 77%
    20:00 +2°C° 0 mm 7 m/S 766 mmHg 76%
    21:00 +2°C° 0 mm 7 m/S 767 mmHg 75%
    22:00 +1°C° 0 mm 6 m/S 767 mmHg 77%
    23:00 +1°C° 0 mm 6 m/S 767 mmHg 79%

    21 Februar, Mittwoch

    Zeit Temperatur Niederschläge Wind Luftdruck Luftfeuchtigkeit
    00:00 0°C° 0 mm 5 m/S 767 mmHg 81%
    01:00 0°C° 0 mm 5 m/S 767 mmHg 82%
    02:00 0°C° 0 mm 5 m/S 767 mmHg 84%
    03:00 -1°C° 0 mm 5 m/S 767 mmHg 85%
    04:00 -1°C° 0 mm 5 m/S 767 mmHg 85%
    05:00 -1°C° 0 mm 5 m/S 767 mmHg 85%
    06:00 -1°C° 0 mm 5 m/S 767 mmHg 85%
    07:00 -2°C° 0 mm 6 m/S 768 mmHg 80%
    08:00 -1°C° 0 mm 6 m/S 768 mmHg 75%
    09:00 +1°C° 0 mm 6 m/S 768 mmHg 69%
    10:00 +2°C° 0 mm 6 m/S 768 mmHg 65%
    11:00 +2°C° 0 mm 6 m/S 768 mmHg 61%
    12:00 +3°C° 0 mm 6 m/S 767 mmHg 56%
    13:00 +3°C° 0 mm 7 m/S 767 mmHg 56%
    14:00 +3°C° 0 mm 7 m/S 767 mmHg 56%
    15:00 +3°C° 0 mm 7 m/S 767 mmHg 56%
    16:00 +2°C° 0 mm 7 m/S 767 mmHg 61%
    17:00 0°C° 0 mm 7 m/S 767 mmHg 65%
    18:00 -1°C° 0 mm 7 m/S 767 mmHg 70%
    19:00 -1°C° 0 mm 7 m/S 767 mmHg 73%
    20:00 -2°C° 0 mm 7 m/S 768 mmHg 75%
    21:00 -3°C° 0 mm 7 m/S 768 mmHg 78%
    22:00 -3°C° 0 mm 7 m/S 768 mmHg 77%
    23:00 -3°C° 0 mm 7 m/S 768 mmHg 77%

    22 Februar, Donnerstag

    Zeit Temperatur Niederschläge Wind Luftdruck Luftfeuchtigkeit
    00:00 -4°C° 0 mm 7 m/S 768 mmHg 76%
    01:00 -4°C° 0 mm 7 m/S 768 mmHg 74%
    02:00 -4°C° 0 mm 7 m/S 768 mmHg 72%
    03:00 -4°C° 0 mm 6 m/S 767 mmHg 70%
    04:00 -4°C° 0 mm 7 m/S 767 mmHg 70%
    05:00 -4°C° 0 mm 7 m/S 767 mmHg 70%
    06:00 -4°C° 0 mm 7 m/S 767 mmHg 70%
    07:00 -5°C° 0 mm 8 m/S 767 mmHg 65%
    08:00 -4°C° 0 mm 8 m/S 767 mmHg 61%
    09:00 -4°C° 0 mm 8 m/S 767 mmHg 57%
    10:00 -2°C° 0 mm 8 m/S 767 mmHg 54%
    11:00 -1°C° 0 mm 8 m/S 767 mmHg 50%
    12:00 0°C° 0 mm 8 m/S 767 mmHg 47%
    13:00 0°C° 0 mm 8 m/S 766 mmHg 48%
    14:00 0°C° 0 mm 8 m/S 766 mmHg 48%
    15:00 0°C° 0 mm 8 m/S 766 mmHg 49%
    16:00 -1°C° 0 mm 8 m/S 766 mmHg 52%
    17:00 -2°C° 0 mm 8 m/S 766 mmHg 56%
    18:00 -3°C° 0 mm 7 m/S 766 mmHg 59%
    19:00 -3°C° 0 mm 7 m/S 767 mmHg 62%
    20:00 -4°C° 0 mm 7 m/S 767 mmHg 64%
    21:00 -4°C° 0 mm 7 m/S 767 mmHg 66%
    22:00 -4°C° 0 mm 7 m/S 767 mmHg 67%
    23:00 -4°C° 0 mm 6 m/S 767 mmHg 68%
    Mehr zeigen